[[{"header":{"parameterUnit":"m.s-1","parameterCategory":1,"la1":30.2991,"la2":30.254,"lo1":-89.0895,"lo2":-89.0444,"dy":0.0017,"dx":0.0017,"nx":28,"ny":28,"refTime":"2024-06-19T21:00:00:Z","depth":0,"parameterNumber":2,"parameterNumberName":"U-component_of_WINDS"},"data":[0,0,0,0,0,0,0,0,0,0,0,0,0,0,0,0,0,0,0,0,0,0,0,0,0,0,0,0,0,0,0,0,0,0,0,0,0,0,0,0,0,0,0,0,0,0,0,0,0,0,0,0,0,0,0,0,0,0,-4.7319,-4.7319,0,-4.727,-4.727,-4.7269,-4.7103,-4.71,-4.7096,-4.7092,-4.7045,-4.7047,-4.7049,0,0,0,0,0,0,0,0,0,0,0,0,0,-4.7274,-4.7275,-4.7319,-4.7319,-4.7318,-4.727,-4.7269,-4.7269,-4.7104,-4.71,-4.7095,-4.7091,-4.7044,-4.7047,-4.7049,0,0,0,0,0,0,0,0,0,0,0,0,0,-4.7266,-4.7276,-4.7319,-4.723,-4.7221,-4.727,-4.7269,-4.7269,-4.7105,-4.7099,-4.7094,-4.7089,-4.7043,-4.7047,-4.705,-4.7182,0,0,-4.706,-4.7061,0,0,0,0,0,0,0,0,-4.7267,-4.7268,-4.7244,-4.7236,-4.7227,-4.7187,-4.7236,-4.724,-4.7106,-4.7149,-4.7092,-4.7086,-4.7097,-4.7096,-4.7099,-4.718,-4.7178,-4.706,-4.7062,-4.7064,-4.7065,0,0,0,0,0,0,0,-4.7268,-4.7269,-4.73,-4.7244,-4.7233,-4.7193,-4.7186,-4.7236,-4.7155,-4.7145,-4.7133,-4.7129,-4.7091,-4.7096,-4.7096,-4.7177,-4.706,-4.7063,-4.7065,-4.7066,-4.7365,-4.7371,0,0,0,0,0,0,-4.728,-4.7271,-4.7301,-4.7298,-4.7233,-4.7199,-4.7191,-4.7206,-4.7154,-4.7141,-4.7134,-4.7122,-4.7093,-4.7093,-4.7094,-4.7245,-4.7064,-4.7067,-4.7069,-4.7359,-4.7367,-4.7373,0,0,0,0,0,0,-4.728,-4.7285,-4.7303,-4.7281,-4.728,-4.7205,-4.7224,-4.7208,-4.7212,-4.7146,-4.7131,-4.7153,-4.7089,-4.7089,-4.7161,-4.7241,-4.7068,-4.7071,-4.7352,-4.7362,-4.737,-4.7549,0,0,0,0,0,0,-4.7279,-4.7285,-4.7334,-4.7283,-4.7282,-4.7371,-4.7228,-4.7211,-4.7218,-4.7201,-4.716,-4.7148,-4.7084,-4.7157,-4.7165,-4.7243,-4.7074,-4.7345,-4.7356,-4.7367,-4.7536,-4.7563,-4.7587,0,0,0,0,0,-4.7278,-4.7387,-4.7337,-4.7342,-4.7341,-4.7376,-4.7375,-4.7299,-4.7225,-4.7273,-4.7231,-4.7149,-4.7232,-4.7166,-4.7173,-4.7253,-4.7339,-4.7353,-4.7366,-4.7524,-4.7558,-4.7586,0,0,0,0,0,0,-4.7449,-4.7378,-4.7323,-4.7418,-4.7404,-4.7348,-4.7406,-4.7337,-4.7344,-4.7328,-4.7235,-4.7227,-4.7313,-4.729,-4.7218,-4.7379,-4.7272,-4.7288,-4.739,-4.7421,-4.7446,-4.7449,-4.7077,0,0,0,0,0,-4.7497,-4.753,-4.7467,-4.7557,-4.7553,-4.7482,-4.7494,-4.7437,-4.7419,-4.7412,-4.7375,-4.7362,-4.7385,-4.7402,-4.742,-4.7533,-4.7521,-4.7591,-4.7617,-4.7638,-4.7652,-4.7711,-4.7741,-4.7417,-4.7417,-4.7417,0,0,-4.7598,-4.7564,-4.759,-4.7591,-4.7573,-4.7611,-4.7478,-4.7523,-4.7549,-4.7419,-4.7484,-4.7458,-4.7437,-4.753,-4.757,-4.7514,-4.7739,-4.7655,-4.7672,-4.7675,-4.7728,-4.7758,-4.7786,-4.7426,-4.7424,-4.7423,0,0,-4.78,-4.7777,-4.785,-4.7835,-4.7811,-4.7763,-4.7781,-4.7736,-4.7712,-4.7777,-4.768,-4.7712,-4.7753,-4.7742,-4.7743,-4.7944,-4.7869,-4.7953,-4.8085,-4.8143,-4.8169,-4.8191,-4.8262,-4.8289,-4.7967,-4.7968,-4.7968,0,-4.7928,-4.7979,-4.7896,-4.7947,-4.7951,-4.7835,-4.7909,-4.7899,-4.7883,-4.7888,-4.7827,-4.7877,-4.7855,-4.7944,-4.7994,-4.7998,-4.8016,-4.7956,-4.8171,-4.8193,-4.8212,-4.8279,-4.8307,-4.7978,-4.7977,-4.7976,-4.7975,0,-4.8137,-4.8175,-4.8237,-4.8223,-4.8234,-4.8296,-4.8224,-4.8246,-4.8189,-4.8148,-4.8216,-4.8186,-4.8195,-4.8213,-4.8158,-4.8296,-4.8262,-4.8188,-4.8078,-4.8255,-4.8316,-4.8341,-4.7993,-4.7989,-4.7986,-4.7983,0,0,-4.8442,-4.8383,-4.8407,-4.84,-4.8366,-4.8393,-4.8452,-4.8461,-4.8481,-4.8475,-4.8521,-4.8561,-4.8492,-4.8492,-4.8436,-4.8487,-4.8649,-4.8406,-4.8404,-4.8452,-4.8799,-4.8854,-4.8885,-4.86,-4.8604,-4.8608,-4.88,0,-4.8633,-4.8727,-4.8656,-4.8763,-4.8797,-4.869,-4.8741,-4.8726,-4.8691,-4.8716,-4.8676,-4.8705,-4.8613,-4.8613,-4.8659,-4.8619,-4.8717,-4.8605,-4.8643,-4.8645,-4.8649,-4.8917,-4.8975,-4.9157,-4.8824,-4.8828,-4.8831,0,-4.8867,-4.887,-4.8982,-4.8941,-4.8953,-4.9,-4.9003,-4.9028,-4.901,-4.8981,-4.8983,-4.8913,-4.8969,-4.8864,-4.894,-4.8865,-4.8877,-4.886,-4.8866,-4.8865,-4.8747,-4.8922,-4.9214,-4.9241,-4.8868,-4.8865,-4.8862,0,-4.9077,-4.911,-4.918,-4.9178,-4.9133,-4.9169,-4.9152,-4.9129,-4.9139,-4.9143,-4.9149,-4.9161,-4.9166,-4.9177,-4.9113,-4.9042,-4.9198,-4.9086,-4.9175,-4.9177,-4.9211,-4.9209,-4.9507,-4.9222,-4.9221,-4.9221,-4.922,0,-4.9296,-4.9368,-4.9274,-4.9318,-4.9396,-4.9315,-4.9395,-4.9367,-4.9348,-4.9385,-4.9294,-4.9331,-4.9244,-4.9273,-4.9224,-4.9294,-4.9298,-4.9276,-4.9262,-4.9283,-4.9286,-4.9288,-4.9273,-4.9228,-4.9226,-4.9225,-4.9224,0,-4.9543,-4.9483,-4.9552,-4.9505,-4.9495,-4.9555,-4.9515,-4.9554,-4.9513,-4.9562,-4.9568,-4.9505,-4.9534,-4.9472,-4.9493,-4.946,-4.956,-4.9526,-4.9566,-4.9555,-4.9647,-4.9639,-4.9955,-4.9992,-4.9685,-4.9688,-4.9691,0,-4.9685,-4.9738,-4.9697,-4.9715,-4.9703,-4.9734,-4.9744,-4.9668,-4.9683,-4.9668,-4.971,-4.9731,-4.9744,-4.9796,-4.9753,-4.9769,-4.9734,-4.9844,-4.9736,-4.9756,-4.9735,-4.9732,-4.9737,-4.9866,-4.987,-4.9873,-4.9875,0,-4.9945,-4.9913,-4.9931,-4.9941,-4.9956,-4.996,-4.9957,-4.9977,-4.9896,-4.9918,-4.9946,-4.9957,-4.9978,-5.0001,-5.0008,-4.9991,-4.9921,-4.991,-4.9931,-4.9953,-4.9973,-4.9962,-4.9625,-4.9902,-4.99,-4.9898,-4.9896,-4.9895,-5.0143,-5.0185,-5.0163,-5.0187,-5.0177,-5.0178,-5.0212,-5.0176,-5.0199,-5.0209,-5.0164,-5.0203,-5.0186,-5.0187,-5.0179,-5.021,-5.016,-5.0191,-5.0199,-5.0207,-5.0222,-4.997,-5.0211,-5.021,-5.0209,-5.0208,-5.0208,0,-5.0397,-5.0378,-5.0401,-5.04,-5.042,-5.0352,-5.0346,-5.0367,-5.0403,-5.0393,-5.0408,-5.0442,-5.0464,-5.0424,-5.044,-5.0473,-5.0441,-5.0479,-5.0475,-5.0473,-5.0265,-5.0245,-5.0505,-5.0505,-5.0505,-5.0505,-5.0505,-5.0505,-5.0531,-5.0599,-5.0566,-5.0629,-5.0609,-5.0647,-5.0649,-5.065,-5.0641,-5.0683,-5.0701,-5.0675,-5.0653,-5.0668,-5.0686,-5.0673,-5.0683,-5.0734,-5.071,-5.0516,-5.0487,-5.046,-5.044,-5.0737,-5.0737,-5.0915,-5.0916,-5.0918]},{"header":{"parameterUnit":"m.s-1","parameterCategory":1,"la1":30.2991,"la2":30.254,"lo1":-89.0895,"lo2":-89.0444,"dy":0.0017,"dx":0.0017,"nx":28,"ny":28,"refTime":"2024-06-19T21:00:00:Z","depth":0,"parameterNumber":3,"parameterNumberName":"V-component_of_WINDS"},"data":[0,0,0,0,0,0,0,0,0,0,0,0,0,0,0,0,0,0,0,0,0,0,0,0,0,0,0,0,0,0,0,0,0,0,0,0,0,0,0,0,0,0,0,0,0,0,0,0,0,0,0,0,0,0,0,0,0,0,2.8117,2.8116,0,2.804,2.8039,2.8038,2.802,2.8021,2.8021,2.8022,2.7933,2.7931,2.7928,0,0,0,0,0,0,0,0,0,0,0,0,0,2.8243,2.8241,2.8117,2.8116,2.8115,2.804,2.8039,2.8038,2.802,2.8021,2.8021,2.8022,2.7934,2.7931,2.7927,0,0,0,0,0,0,0,0,0,0,0,0,0,2.8179,2.824,2.8117,2.8098,2.8095,2.804,2.8039,2.8038,2.802,2.8021,2.8021,2.8022,2.7935,2.7931,2.7927,2.7884,0,0,2.7914,2.7912,0,0,0,0,0,0,0,0,2.8183,2.8174,2.8101,2.8099,2.8096,2.8041,2.8051,2.7986,2.802,2.8048,2.8022,2.8023,2.7968,2.7961,2.7944,2.788,2.7876,2.7913,2.7911,2.7909,2.7908,0,0,0,0,0,0,0,2.8187,2.8178,2.8086,2.81,2.8097,2.809,2.8082,2.8039,2.8004,2.8046,2.8044,2.8036,2.7966,2.7948,2.7942,2.7875,2.7914,2.791,2.7907,2.7905,2.7773,2.7772,0,0,0,0,0,0,2.8196,2.8181,2.8089,2.8084,2.8143,2.8088,2.8078,2.8057,2.8004,2.7997,2.8035,2.8035,2.7955,2.7947,2.7939,2.7886,2.7909,2.7905,2.7903,2.7774,2.7772,2.7771,0,0,0,0,0,0,2.8199,2.8188,2.8092,2.8132,2.812,2.8085,2.8061,2.8055,2.8038,2.7997,2.799,2.8024,2.7956,2.7945,2.7899,2.7882,2.7903,2.7899,2.7775,2.7773,2.7772,2.7778,0,0,0,0,0,0,2.8203,2.8189,2.8173,2.8132,2.8118,2.8055,2.806,2.8053,2.8031,2.8031,2.7984,2.7977,2.7956,2.7905,2.7894,2.7877,2.7896,2.7776,2.7774,2.7772,2.7779,2.7777,2.7775,0,0,0,0,0,2.8207,2.8176,2.8173,2.8162,2.8098,2.8054,2.8045,2.8024,2.803,2.8013,2.7988,2.7978,2.7887,2.7901,2.7888,2.7869,2.7777,2.7775,2.7773,2.778,2.7778,2.7776,0,0,0,0,0,0,2.8211,2.817,2.8166,2.8121,2.8092,2.8051,2.8029,2.8022,2.7987,2.7988,2.796,2.795,2.7906,2.7883,2.7899,2.7826,2.7832,2.7827,2.7842,2.7839,2.7837,2.7842,2.7892,0,0,0,0,0,2.8208,2.8179,2.8143,2.8106,2.8092,2.8064,2.8043,2.8031,2.7997,2.7984,2.7954,2.7921,2.7885,2.7861,2.7825,2.7777,2.7766,2.7758,2.7756,2.7755,2.775,2.7724,2.772,2.7764,2.7764,2.7764,0,0,2.8199,2.8173,2.8154,2.8107,2.8082,2.805,2.8053,2.8018,2.7994,2.7977,2.7933,2.7911,2.7871,2.7825,2.7803,2.7804,2.7736,2.7752,2.7751,2.7747,2.7721,2.7717,2.7713,2.7763,2.7763,2.7763,0,0,2.8166,2.8143,2.8111,2.8089,2.8054,2.8035,2.8028,2.7989,2.7975,2.7931,2.7919,2.7889,2.7827,2.78,2.7778,2.774,2.773,2.7729,2.7718,2.7693,2.7689,2.7686,2.7672,2.7667,2.7725,2.7725,2.7725,0,2.8157,2.8111,2.8095,2.8062,2.8041,2.8031,2.7997,2.7975,2.7928,2.7913,2.7917,2.7842,2.7814,2.7762,2.7753,2.7736,2.7725,2.7733,2.7692,2.7688,2.7685,2.7671,2.7666,2.7725,2.7725,2.7725,2.7725,0,2.8103,2.8071,2.8049,2.801,2.7987,2.7953,2.7931,2.7909,2.79,2.7881,2.7837,2.7805,2.7763,2.775,2.7738,2.7696,2.7699,2.7698,2.7703,2.7681,2.7667,2.7662,2.7725,2.7725,2.7725,2.7725,0,0,2.8065,2.8021,2.8013,2.7996,2.7959,2.7933,2.79,2.7863,2.7845,2.7815,2.7785,2.7736,2.7736,2.7711,2.7697,2.7676,2.7648,2.7677,2.7676,2.7672,2.76,2.7599,2.7594,2.7643,2.7642,2.7641,2.7603,0,2.8026,2.797,2.7956,2.7907,2.7878,2.7869,2.7841,2.7814,2.7797,2.7768,2.7748,2.7713,2.7716,2.7701,2.768,2.7656,2.7633,2.7659,2.7613,2.7612,2.7621,2.7587,2.7585,2.7551,2.7598,2.7597,2.7596,0,2.7972,2.7945,2.7894,2.7864,2.7851,2.7826,2.7793,2.7766,2.7736,2.7725,2.77,2.7689,2.7654,2.7664,2.7614,2.7632,2.7613,2.7599,2.7597,2.7589,2.76,2.7577,2.7539,2.7533,2.7588,2.7588,2.7589,0,2.7949,2.79,2.7864,2.7849,2.7813,2.7796,2.7779,2.7751,2.7731,2.7701,2.7688,2.7653,2.7634,2.7607,2.7586,2.7596,2.7538,2.7546,2.7526,2.7526,2.7511,2.7512,2.7468,2.7503,2.7503,2.7503,2.7503,0,2.7905,2.7874,2.7853,2.783,2.7796,2.7781,2.7746,2.7729,2.7705,2.7677,2.7668,2.7642,2.7618,2.7589,2.7573,2.7534,2.7525,2.7514,2.7509,2.7513,2.7515,2.7498,2.7499,2.7502,2.7502,2.7502,2.7502,0,2.7871,2.7857,2.7817,2.7788,2.778,2.7756,2.773,2.7707,2.7692,2.7658,2.7649,2.7624,2.7589,2.7568,2.7523,2.7512,2.7469,2.7466,2.748,2.7477,2.7458,2.746,2.74,2.7391,2.7434,2.7434,2.7433,0,2.7843,2.782,2.7791,2.7774,2.7759,2.7731,2.7712,2.7697,2.7677,2.7644,2.7625,2.7591,2.7563,2.7508,2.7484,2.745,2.7445,2.7427,2.744,2.7445,2.7444,2.7444,2.7442,2.7424,2.7423,2.7423,2.7423,0,2.7795,2.779,2.7764,2.7737,2.7716,2.7693,2.7669,2.7655,2.7637,2.7615,2.7582,2.756,2.7518,2.7483,2.7449,2.743,2.7422,2.742,2.7414,2.7416,2.7424,2.7419,2.7472,2.742,2.7421,2.7421,2.7421,2.7421,2.7762,2.7741,2.7719,2.7691,2.7674,2.7653,2.7631,2.7616,2.7589,2.7555,2.7548,2.7513,2.7486,2.7439,2.742,2.7392,2.7394,2.7384,2.7381,2.7379,2.7378,2.7432,2.7385,2.7385,2.7386,2.7386,2.7386,0,2.7711,2.7698,2.7674,2.7644,2.7622,2.7623,2.7599,2.7579,2.755,2.7527,2.7502,2.7465,2.7433,2.7409,2.7376,2.7358,2.7354,2.735,2.7349,2.7345,2.7378,2.7387,2.7354,2.7354,2.7354,2.7354,2.7354,2.7354,2.7683,2.7649,2.7642,2.7599,2.7585,2.7554,2.754,2.7521,2.7503,2.7464,2.7439,2.7425,2.7402,2.7368,2.7339,2.7333,2.732,2.7316,2.7309,2.7339,2.7343,2.7346,2.7354,2.7314,2.7314,2.7278,2.7278,2.7277]}]]